Mitchell, SD

12:56 PM CST on November 14, 2019 (GMT -0600)
Mitchell Municipal

Weather History for KMHE - May, 2019

Change the Weather History Date:

Monday, May 27, 2019

  Actual Average Record
Temperature  
Mean Temperature 61 °F 63 °F  
Max Temperature 66 °F 74 °F 97 °F (2018)
Min Temperature 56 °F 52 °F 29 °F (1907)
Degree Days  
Heating Degree Days 4 4  
Month to date heating degree days 283 195  
Since 1 July heating degree days 7971 7195  
Cooling Degree Days 0 2  
Month to date cooling degree days 7 28  
Year to date cooling degree days 7 30  
Growing Degree Days 10 (Base 50)    
Moisture  
Dew Point 55 °F    
Average Humidity 81    
Maximum Humidity 90    
Minimum Humidity 72    
Precipitation  
Precipitation 0.09 in 0.14 in 1.58 in (1997)
Month to date precipitation 4.28 2.32  
Year to date precipitation 11.86 6.12  
Snow  
Snow 0.00 in - 0.00 in ()
Month to date snowfall 0.0  
Since 1 July snowfall 67.6  
Snow Depth 0.00 in    
Sea Level Pressure  
Sea Level Pressure 29.80 in    
Wind  
Wind Speed 12 mph (ENE)    
Max Wind Speed 21 mph    
Max Gust Speed 28 mph    
Visibility 8 miles    
Events Rain    
T = Trace of Precipitation, MM = Missing Value Source: NWS Daily Summary

Daily Weather History Graph

Daily Weather History Graph

Search for Another Location

Airport or City:

Astronomy

May. 27, 2019 Rise Set
Actual Time 5:56 AM CDT 9:02 PM CDT
Civil Twilight 5:21 AM CDT 9:37 PM CDT
Nautical Twilight 4:37 AM CDT 10:22 PM CDT
Astronomical Twilight 3:44 AM CDT 11:15 PM CDT
Moon 2:58 AM CDT (5/27) 2:00 PM CDT (5/27)
Length of Visible Light 16h 15m
Length of Day
15h 06m
Last Quarter, 40% of the Moon is Illuminated
May 27
Last Quarter
Jun 3
New
Jun 10
First Quarter
Jun 17
Full
Jun 25
Last Quarter

Hourly Weather History & Observations

Time (CDT) Temp. Dew Point Humidity Pressure Visibility Wind Dir Wind Speed Gust Speed Precip Events Conditions
12:41 AM 61.0 °F 57.9 °F 90% 29.85 in 3.0 mi East 11.5 mph - 0.18 in Rain Rain
12:53 AM 61.0 °F 57.9 °F 90% 29.84 in 10.0 mi East 12.7 mph - 0.18 in Rain Light Rain
1:34 AM 61.0 °F 57.9 °F 90% 29.83 in 10.0 mi East 15.0 mph 26.5 mph 0.00 in   Overcast
1:53 AM 61.0 °F 57.9 °F 90% 29.82 in 10.0 mi East 16.1 mph - 0.00 in   Overcast
2:05 AM 61.0 °F 57.9 °F 90% 29.83 in 10.0 mi East 13.8 mph 25.3 mph N/A   Overcast
2:32 AM 61.0 °F 57.9 °F 90% 29.83 in 10.0 mi East 9.2 mph - N/A   Overcast
2:53 AM 61.0 °F 57.9 °F 90% 29.81 in 10.0 mi East 10.4 mph - N/A   Overcast
3:45 AM 61.0 °F 57.9 °F 90% 29.81 in 10.0 mi NNW 10.4 mph - N/A   Overcast
3:53 AM 60.1 °F 57.0 °F 90% 29.79 in 10.0 mi NNE 10.4 mph - N/A   Overcast
4:07 AM 61.0 °F 57.0 °F 87% 29.80 in 10.0 mi ENE 15.0 mph - N/A   Overcast
4:18 AM 61.0 °F 57.0 °F 87% 29.80 in 10.0 mi East 18.4 mph 27.6 mph N/A   Overcast
4:53 AM 60.1 °F 57.0 °F 90% 29.78 in 10.0 mi ENE 11.5 mph - N/A   Overcast
5:29 AM 60.1 °F 55.9 °F 86% 29.78 in 10.0 mi ENE 11.5 mph - N/A   Overcast
5:53 AM 60.1 °F 55.0 °F 83% 29.75 in 10.0 mi East 18.4 mph 24.2 mph N/A   Overcast
6:53 AM 60.1 °F 55.0 °F 83% 29.74 in 10.0 mi East 11.5 mph - N/A   Overcast
7:08 AM 59.0 °F 55.0 °F 87% 29.76 in 10.0 mi East 11.5 mph 20.7 mph N/A   Overcast
7:53 AM 60.1 °F 55.9 °F 86% 29.72 in 10.0 mi East 11.5 mph - N/A   Overcast
8:33 AM 60.1 °F 55.9 °F 86% 29.74 in 10.0 mi East 9.2 mph - N/A   Overcast
8:53 AM 60.1 °F 55.9 °F 86% 29.74 in 10.0 mi ENE 6.9 mph - N/A   Overcast
9:40 AM 60.1 °F 55.0 °F 83% 29.77 in 10.0 mi NNE 8.1 mph - N/A   Overcast
9:53 AM 60.1 °F 55.0 °F 83% 29.76 in 10.0 mi NNE 11.5 mph - N/A   Overcast
10:40 AM 59.0 °F 55.0 °F 87% 29.78 in 1.8 mi NE 11.5 mph - 0.03 in Rain Light Rain
10:53 AM 57.9 °F 55.0 °F 90% 29.78 in 1.8 mi NE 11.5 mph - 0.04 in Rain Light Rain
11:03 AM 59.0 °F 55.0 °F 87% 29.78 in 2.5 mi NE 10.4 mph - 0.00 in Rain Light Rain
11:33 AM 57.9 °F 55.0 °F 90% 29.79 in 3.0 mi NE 11.5 mph - 0.01 in Rain Light Rain
11:44 AM 57.9 °F 55.0 °F 90% 29.80 in 2.5 mi NNE 11.5 mph - 0.01 in Rain Light Rain
11:53 AM 59.0 °F 55.9 °F 90% 29.79 in 3.0 mi NNE 13.8 mph - 0.02 in Rain Light Rain
12:00 PM 59.0 °F 55.9 °F 90% 29.80 in 2.5 mi NE 15.0 mph 23.0 mph 0.00 in Rain Light Rain
12:04 PM 59.0 °F 55.0 °F 87% 29.80 in 3.0 mi NE 15.0 mph 23.0 mph 0.00 in Rain Light Rain
12:11 PM 57.9 °F 55.0 °F 90% 29.80 in 2.5 mi NE 15.0 mph 23.0 mph 0.00 in Rain Light Rain
12:19 PM 57.9 °F 55.0 °F 90% 29.80 in 2.0 mi NE 12.7 mph - 0.01 in Rain Light Rain
12:25 PM 59.0 °F 55.9 °F 90% 29.80 in 1.5 mi NE 15.0 mph - 0.01 in Rain Light Rain
12:44 PM 59.0 °F 55.9 °F 90% 29.82 in 1.8 mi NNE 10.4 mph - 0.03 in Rain Light Rain
12:53 PM 59.0 °F 55.0 °F 87% 29.82 in 2.5 mi NE 12.7 mph - 0.03 in Rain Light Rain
1:16 PM 59.0 °F 55.0 °F 87% 29.83 in 5.0 mi NE 9.2 mph - 0.00 in Rain Light Rain
1:53 PM 57.9 °F 54.0 °F 87% 29.83 in 7.0 mi NE 15.0 mph 25.3 mph 0.00 in   Overcast
2:22 PM 60.1 °F 55.0 °F 83% 29.83 in 6.0 mi NE 12.7 mph - 0.00 in Rain Light Rain
2:33 PM 60.1 °F 55.0 °F 83% 29.82 in 10.0 mi NE 16.1 mph - 0.00 in   Overcast
2:53 PM 62.1 °F 55.9 °F 80% 29.81 in 10.0 mi ENE 17.3 mph - 0.00 in   Overcast
3:53 PM 63.0 °F 55.0 °F 75% 29.81 in 10.0 mi ENE 17.3 mph 23.0 mph N/A   Mostly Cloudy
4:53 PM 64.0 °F 55.0 °F 73% 29.81 in 10.0 mi ENE 10.4 mph - N/A   Mostly Cloudy
5:03 PM 64.9 °F 55.9 °F 73% 29.81 in 10.0 mi NE 10.4 mph - N/A   Scattered Clouds
5:10 PM 64.9 °F 55.0 °F 70% 29.81 in 10.0 mi East 10.4 mph - N/A   Mostly Cloudy
5:53 PM 64.9 °F 55.0 °F 70% 29.81 in 10.0 mi ENE 13.8 mph - N/A   Overcast
6:10 PM 63.0 °F 55.0 °F 75% 29.81 in 10.0 mi NE 10.4 mph - N/A   Overcast
6:53 PM 62.1 °F 54.0 °F 75% 29.81 in 10.0 mi NE 15.0 mph - N/A   Mostly Cloudy
7:53 PM 61.0 °F 53.1 °F 75% 29.83 in 10.0 mi NE 10.4 mph - N/A   Overcast
8:53 PM 60.1 °F 53.1 °F 78% 29.85 in 10.0 mi ENE 9.2 mph - N/A   Overcast
9:53 PM 57.9 °F 52.0 °F 81% 29.86 in 10.0 mi East 5.8 mph - N/A   Mostly Cloudy
10:53 PM 55.9 °F 52.0 °F 87% 29.87 in 10.0 mi East 6.9 mph - N/A   Clear
11:53 PM 55.9 °F 52.0 °F 87% 29.86 in 10.0 mi ENE 12.7 mph - N/A   Clear